Location: Unspecified
(0.0000°N, 0.0000°E)
Time: 04:36:51
(UTC+00:00)

Vanguard 3 - Pass Details

Date: 18 April 2021
Orbit: 507 x 3262 km, 33.4° (Epoch: 17 May)

Event Time Altitude Azimuth Distance (km) Brightness Sun altitude
Rises 22:14:17 0° 241° (WSW) 6,195 11.9 -61.6°
Reaches altitude 10° 22:19:08 10° 244° (WSW) 4,752 11.2 -62.8°
Enters shadow 22:21:23 16° 246° (WSW) 4,061 10.8 -63.3°
